This demonstration page uses our WeatherBlox Daily Observations layout. Learn more.

Left ArrowRight Arrow

Hourly Observations for November 23, 2016

Temp ( °F °C ) Dew Point ( °F °C ) Humidity (%) Winds ( mph kmh ) Pressure ( in mb ) Visibility ( mi km ) Precip ( " mm )
12:53 am 00:53 Clear 45 7.2 34 1.1 66 66 N 9 15 30.09 1019 10 16 0.00 0.00
1:53 am 01:53 Clear 46 7.8 35 1.7 66 66 NNE 9 15 30.11 1020 10 16 0.00 0.00
2:53 am 02:53 Clear 43 6.1 35 1.7 74 74 N 9 15 30.13 1020 10 16 0.00 0.00
3:53 am 03:53 Clear 42 5.6 34 1.1 73 73 N 7 11 30.15 1021 10 16 0.00 0.00
4:53 am 04:53 Clear 39 3.9 34 1.1 82 82 NNW 7 11 30.16 1021 10 16 0.00 0.00
5:53 am 05:53 Clear 38 3.3 33 0.6 83 83 WSW 8 13 30.19 1022 10 16 0.00 0.00
6:53 am 06:53 Clear 38 3.3 34 1.1 86 86 WSW 9 15 30.23 1024 10 16 0.00 0.00
7:53 am 07:53 Sunny 37 2.8 33 0.6 86 86 WSW 8 13 30.26 1025 10 16 0.00 0.00
8:53 am 08:53 Sunny 47 8.3 35 1.7 63 63 W 5 7 30.27 1025 10 16 0.00 0.00
9:53 am 09:53 Sunny 51 10.6 33 0.6 50 50 NNE 6 9 30.27 1025 10 16 0.00 0.00
10:53 am 10:53 Sunny 53 11.7 33 0.6 47 47 S 3 6 30.27 1025 10 16 0.00 0.00
11:53 am 11:53 Sunny 55 12.8 32 0 42 42 VRB 3 6 30.25 1024 10 16 0.00 0.00
12:53 pm 12:53 Sunny 58 14.4 32 0 38 38 VRB 5 7 30.21 1023 10 16 0.00 0.00
1:53 pm 13:53 Sunny 61 16.1 31 -0.6 32 32 VRB 3 6 30.16 1022 10 16 0.00 0.00
2:53 pm 14:53 Sunny 62 16.7 31 -0.6 31 31 S 5 7 30.14 1021 10 16 0.00 0.00
3:53 pm 15:53 Sunny 62 16.7 31 -0.6 31 31 SE 3 6 30.12 1020 10 16 0.00 0.00
4:53 pm 16:53 Sunny 62 16.7 31 -0.6 31 31 Calm 30.11 1020 10 16 0.00 0.00
5:53 pm 17:53 Clear 57 13.9 33 0.6 41 41 SE 6 9 30.12 1020 10 16 0.00 0.00
6:53 pm 18:53 Clear 51 10.6 33 0.6 50 50 SE 6 9 30.14 1021 10 16 0.00 0.00
7:53 pm 19:53 Clear 50 10 33 0.6 52 52 ESE 6 9 30.14 1021 10 16 0.00 0.00
8:53 pm 20:53 Clear 48 8.9 33 0.6 56 56 SE 6 9 30.14 1021 10 16 0.00 0.00
9:53 pm 21:53 Clear 46 7.8 33 0.6 61 61 ESE 6 9 30.14 1021 10 16 0.00 0.00
10:53 pm 22:53 Clear 43 6.1 32 0 65 65 E 6 9 30.14 1021 10 16 0.00 0.00
11:53 pm 23:53 Clear 39 3.9 32 0 76 76 NE 3 6 30.14 1021 10 16 0.00 0.00

Powered by AerisWeather